[[{"header":{"parameterUnit":"m.s-1","parameterCategory":1,"la1":30.2991,"la2":30.254,"lo1":-89.0895,"lo2":-89.0444,"dy":0.0017,"dx":0.0017,"nx":28,"ny":28,"refTime":"2024-10-03T09:00:00:Z","depth":0,"parameterNumber":2,"parameterNumberName":"U-component_of_WINDS"},"data":[0,0,0,0,0,0,0,0,0,0,0,0,0,0,0,0,0,0,0,0,0,0,0,0,0,0,0,0,0,0,0,0,0,0,0,0,0,0,0,0,0,0,0,0,0,0,0,0,0,0,0,0,0,0,0,0,0,0,-2.2075,-2.2077,0,-2.2289,-2.2292,-2.2294,-2.2321,-2.2319,-2.2317,-2.2315,-2.2545,-2.2553,-2.2561,0,0,0,0,0,0,0,0,0,0,0,0,0,-2.1703,-2.171,-2.2075,-2.2078,-2.208,-2.2289,-2.2292,-2.2295,-2.2322,-2.2319,-2.2317,-2.2314,-2.2543,-2.2552,-2.2562,0,0,0,0,0,0,0,0,0,0,0,0,0,-2.1886,-2.1712,-2.2075,-2.2119,-2.2125,-2.2288,-2.2292,-2.2295,-2.2322,-2.2319,-2.2316,-2.2313,-2.254,-2.2551,-2.2563,-2.2701,0,0,-2.26,-2.2606,0,0,0,0,0,0,0,0,-2.1875,-2.1899,-2.211,-2.2116,-2.2123,-2.2275,-2.2245,-2.2432,-2.2323,-2.2248,-2.2315,-2.2312,-2.2459,-2.2477,-2.2525,-2.2712,-2.2721,-2.2601,-2.2609,-2.2614,-2.2617,0,0,0,0,0,0,0,-2.1863,-2.1891,-2.216,-2.2113,-2.2121,-2.2132,-2.2155,-2.2281,-2.2369,-2.2254,-2.2256,-2.2281,-2.2462,-2.2513,-2.253,-2.2725,-2.2601,-2.2612,-2.2619,-2.2624,-2.304,-2.3044,0,0,0,0,0,0,-2.184,-2.188,-2.2153,-2.2166,-2.1989,-2.2141,-2.2167,-2.223,-2.2367,-2.2385,-2.2283,-2.2281,-2.2494,-2.2516,-2.2538,-2.2711,-2.2614,-2.2625,-2.2632,-2.3036,-2.3041,-2.3045,0,0,0,0,0,0,-2.1832,-2.1864,-2.2145,-2.2024,-2.206,-2.2151,-2.2222,-2.2236,-2.2286,-2.2389,-2.2406,-2.2318,-2.2492,-2.2521,-2.266,-2.2719,-2.2631,-2.2642,-2.3032,-2.3038,-2.3043,-2.3055,0,0,0,0,0,0,-2.1821,-2.1861,-2.1911,-2.2025,-2.2067,-2.2259,-2.2225,-2.2242,-2.2306,-2.2305,-2.2426,-2.2444,-2.2492,-2.2642,-2.2672,-2.2734,-2.2651,-2.3027,-2.3035,-2.3041,-2.305,-2.306,-2.3069,0,0,0,0,0,-2.1808,-2.1907,-2.1913,-2.1946,-2.213,-2.2262,-2.2287,-2.2337,-2.231,-2.2364,-2.243,-2.244,-2.2708,-2.2656,-2.2691,-2.2757,-2.3024,-2.3032,-2.3041,-2.3045,-2.3058,-2.3069,0,0,0,0,0,0,-2.1801,-2.1923,-2.1931,-2.2069,-2.2155,-2.2266,-2.2334,-2.2348,-2.2446,-2.2442,-2.2504,-2.2531,-2.2668,-2.2727,-2.2667,-2.2899,-2.2864,-2.288,-2.2856,-2.2869,-2.2878,-2.2862,-2.2661,0,0,0,0,0,-2.1815,-2.1908,-2.2011,-2.2124,-2.2166,-2.2243,-2.2302,-2.2334,-2.2426,-2.2464,-2.254,-2.2633,-2.2739,-2.2807,-2.291,-2.3059,-2.3088,-2.3122,-2.3131,-2.3139,-2.3152,-2.3239,-2.3256,-2.3073,-2.3073,-2.3073,0,0,-2.1847,-2.1925,-2.198,-2.2125,-2.2194,-2.2294,-2.2273,-2.2378,-2.2454,-2.2481,-2.2616,-2.2676,-2.2785,-2.293,-2.2998,-2.2983,-2.3209,-2.315,-2.3155,-2.3165,-2.325,-2.3267,-2.3282,-2.3079,-2.3078,-2.3077,0,0,-2.1954,-2.2021,-2.2123,-2.2193,-2.2298,-2.2349,-2.2374,-2.2485,-2.2525,-2.2661,-2.2684,-2.2777,-2.2956,-2.3033,-2.3096,-2.3236,-2.325,-2.3269,-2.332,-2.3404,-2.3418,-2.3432,-2.3484,-2.3502,-2.3281,-2.3281,-2.3281,0,-2.198,-2.2126,-2.2174,-2.2279,-2.2344,-2.237,-2.2477,-2.2545,-2.268,-2.2726,-2.2707,-2.2934,-2.3009,-2.3174,-2.3208,-2.3257,-2.3291,-2.3255,-2.3412,-2.3425,-2.3439,-2.349,-2.3509,-2.3283,-2.3283,-2.3283,-2.3282,0,-2.2155,-2.2256,-2.2327,-2.2453,-2.2527,-2.2632,-2.2701,-2.277,-2.2796,-2.285,-2.2992,-2.3082,-2.3205,-2.3247,-2.3274,-2.3418,-2.3405,-2.3398,-2.3364,-2.3457,-2.3506,-2.3526,-2.3285,-2.3285,-2.3284,-2.3284,0,0,-2.2262,-2.2415,-2.244,-2.2499,-2.2619,-2.2701,-2.281,-2.2927,-2.2986,-2.308,-2.3176,-2.3328,-2.3323,-2.3394,-2.3431,-2.3505,-2.3614,-2.349,-2.3493,-2.3511,-2.3781,-2.3786,-2.3807,-2.3624,-2.3627,-2.3631,-2.3773,0,-2.2384,-2.2574,-2.2622,-2.2786,-2.2883,-2.2911,-2.3007,-2.3094,-2.3149,-2.3243,-2.3305,-2.3413,-2.3397,-2.344,-2.3514,-2.3584,-2.3669,-2.3575,-2.3717,-2.3722,-2.3689,-2.3833,-2.3838,-2.3967,-2.3792,-2.3795,-2.3798,0,-2.2551,-2.2645,-2.2817,-2.2927,-2.297,-2.3054,-2.3167,-2.3255,-2.3356,-2.3392,-2.3472,-2.3503,-2.3623,-2.3582,-2.375,-2.3685,-2.3747,-2.3791,-2.3797,-2.3813,-2.3765,-2.3854,-2.4009,-2.4029,-2.3828,-2.3825,-2.3823,0,-2.2614,-2.2784,-2.291,-2.296,-2.309,-2.315,-2.3208,-2.3305,-2.3374,-2.3474,-2.352,-2.3635,-2.3698,-2.3788,-2.3851,-2.3815,-2.4015,-2.3979,-2.4051,-2.405,-2.4092,-2.4089,-2.4261,-2.413,-2.413,-2.413,-2.4129,0,-2.2745,-2.285,-2.294,-2.3018,-2.3138,-2.3195,-2.3314,-2.3374,-2.3461,-2.3555,-2.3588,-2.3676,-2.3753,-2.3853,-2.3903,-2.4037,-2.4065,-2.41,-2.4112,-2.4097,-2.4093,-2.4139,-2.4132,-2.4135,-2.4134,-2.4133,-2.4132,0,-2.2835,-2.2899,-2.3039,-2.3151,-2.3182,-2.3266,-2.3365,-2.3444,-2.3501,-2.3619,-2.365,-2.3741,-2.386,-2.3932,-2.4084,-2.4118,-2.4266,-2.4275,-2.4231,-2.4237,-2.4306,-2.4299,-2.4514,-2.4547,-2.4393,-2.4394,-2.4395,0,-2.2915,-2.2996,-2.3117,-2.318,-2.3238,-2.3339,-2.3409,-2.3471,-2.3543,-2.3666,-2.3732,-2.3852,-2.3952,-2.4143,-2.4225,-2.4343,-2.4355,-2.4423,-2.4373,-2.4357,-2.4359,-2.4353,-2.4363,-2.4431,-2.4432,-2.4433,-2.4434,0,-2.305,-2.3078,-2.3175,-2.3284,-2.3366,-2.3456,-2.3546,-2.3597,-2.3675,-2.3755,-2.3876,-2.3953,-2.4108,-2.423,-2.4355,-2.442,-2.4442,-2.4449,-2.4473,-2.4458,-2.443,-2.4448,-2.4255,-2.4444,-2.4443,-2.4442,-2.4442,-2.4441,-2.3139,-2.3213,-2.331,-2.3418,-2.3492,-2.3576,-2.3656,-2.3723,-2.3823,-2.3952,-2.3984,-2.4112,-2.4216,-2.4386,-2.4454,-2.4558,-2.4548,-2.4581,-2.459,-2.4597,-2.46,-2.4413,-2.4582,-2.4581,-2.4581,-2.4581,-2.4581,0,-2.3277,-2.3341,-2.344,-2.3563,-2.365,-2.366,-2.3761,-2.3834,-2.3945,-2.4038,-2.4135,-2.4277,-2.4396,-2.4488,-2.4611,-2.4677,-2.4691,-2.4708,-2.4704,-2.4719,-2.4601,-2.4569,-2.4695,-2.4695,-2.4695,-2.4695,-2.4695,-2.4695,-2.3359,-2.3486,-2.3526,-2.3693,-2.3758,-2.388,-2.3938,-2.4017,-2.4092,-2.4247,-2.4345,-2.4403,-2.4498,-2.4629,-2.474,-2.4765,-2.4809,-2.4825,-2.4851,-2.474,-2.4727,-2.4715,-2.4686,-2.4834,-2.4834,-2.4961,-2.4962,-2.4963]},{"header":{"parameterUnit":"m.s-1","parameterCategory":1,"la1":30.2991,"la2":30.254,"lo1":-89.0895,"lo2":-89.0444,"dy":0.0017,"dx":0.0017,"nx":28,"ny":28,"refTime":"2024-10-03T09:00:00:Z","depth":0,"parameterNumber":3,"parameterNumberName":"V-component_of_WINDS"},"data":[0,0,0,0,0,0,0,0,0,0,0,0,0,0,0,0,0,0,0,0,0,0,0,0,0,0,0,0,0,0,0,0,0,0,0,0,0,0,0,0,0,0,0,0,0,0,0,0,0,0,0,0,0,0,0,0,0,0,-0.5576,-0.5577,0,-0.5657,-0.5658,-0.5659,-0.5635,-0.5634,-0.5632,-0.563,-0.5717,-0.5721,-0.5725,0,0,0,0,0,0,0,0,0,0,0,0,0,-0.5404,-0.5407,-0.5576,-0.5577,-0.5578,-0.5657,-0.5658,-0.5659,-0.5636,-0.5633,-0.5631,-0.563,-0.5716,-0.572,-0.5725,0,0,0,0,0,0,0,0,0,0,0,0,0,-0.5481,-0.5408,-0.5575,-0.5575,-0.5576,-0.5656,-0.5658,-0.5659,-0.5636,-0.5633,-0.5631,-0.5629,-0.5714,-0.572,-0.5726,-0.5812,0,0,-0.5743,-0.5746,0,0,0,0,0,0,0,0,-0.5477,-0.5488,-0.5574,-0.5576,-0.5577,-0.5633,-0.5629,-0.5711,-0.5637,-0.5613,-0.563,-0.5627,-0.5692,-0.5699,-0.572,-0.5816,-0.582,-0.5744,-0.5747,-0.575,-0.5752,0,0,0,0,0,0,0,-0.5472,-0.5484,-0.5608,-0.5576,-0.5577,-0.5573,-0.5581,-0.5644,-0.5666,-0.5615,-0.5614,-0.5623,-0.5692,-0.5714,-0.5722,-0.5821,-0.5744,-0.5749,-0.5753,-0.5755,-0.5994,-0.5996,0,0,0,0,0,0,-0.5465,-0.548,-0.5605,-0.561,-0.5519,-0.5578,-0.5587,-0.5618,-0.5665,-0.567,-0.5626,-0.5622,-0.5706,-0.5715,-0.5725,-0.583,-0.575,-0.5755,-0.5759,-0.5991,-0.5994,-0.5997,0,0,0,0,0,0,-0.5461,-0.5476,-0.5602,-0.5545,-0.556,-0.5583,-0.5618,-0.5621,-0.5643,-0.5673,-0.5677,-0.5645,-0.5704,-0.5717,-0.5791,-0.5833,-0.5758,-0.5763,-0.5988,-0.5992,-0.5996,-0.6041,0,0,0,0,0,0,-0.5457,-0.5475,-0.5507,-0.5545,-0.5563,-0.5665,-0.5621,-0.5624,-0.5653,-0.5649,-0.5692,-0.5696,-0.5703,-0.5782,-0.5796,-0.5839,-0.5768,-0.5984,-0.599,-0.5995,-0.6036,-0.6046,-0.6055,0,0,0,0,0,-0.5451,-0.5517,-0.5509,-0.5524,-0.5604,-0.5668,-0.5678,-0.5684,-0.5656,-0.569,-0.5709,-0.5695,-0.5825,-0.579,-0.5806,-0.5851,-0.5981,-0.5988,-0.5994,-0.6031,-0.6044,-0.6055,0,0,0,0,0,0,-0.5484,-0.5522,-0.5514,-0.5594,-0.5628,-0.5664,-0.5706,-0.5697,-0.574,-0.5734,-0.574,-0.575,-0.5826,-0.5846,-0.5805,-0.5938,-0.59,-0.591,-0.5922,-0.5935,-0.5944,-0.5938,-0.5773,0,0,0,0,0,-0.5501,-0.5548,-0.5579,-0.5648,-0.5665,-0.5682,-0.571,-0.5712,-0.5747,-0.5762,-0.5786,-0.5822,-0.5872,-0.5904,-0.5951,-0.6038,-0.6048,-0.6077,-0.6087,-0.6094,-0.6103,-0.6153,-0.6166,-0.6019,-0.6019,-0.6018,0,0,-0.5536,-0.5562,-0.5592,-0.5655,-0.5681,-0.5732,-0.5695,-0.5749,-0.5788,-0.577,-0.5842,-0.5861,-0.5902,-0.5983,-0.602,-0.6002,-0.6146,-0.6103,-0.6109,-0.6113,-0.6161,-0.6175,-0.6187,-0.6023,-0.6022,-0.6021,0,0,-0.5626,-0.565,-0.571,-0.5737,-0.5777,-0.5789,-0.5803,-0.5841,-0.5853,-0.5924,-0.5913,-0.5959,-0.6043,-0.6073,-0.6099,-0.6202,-0.6191,-0.6217,-0.6268,-0.6316,-0.6327,-0.6338,-0.6376,-0.6389,-0.6225,-0.6225,-0.6226,0,-0.5665,-0.5739,-0.5743,-0.5799,-0.5827,-0.5813,-0.5875,-0.5902,-0.5955,-0.5976,-0.5954,-0.6061,-0.6087,-0.6176,-0.6201,-0.6222,-0.624,-0.6212,-0.6325,-0.6335,-0.6345,-0.6382,-0.6396,-0.6228,-0.6228,-0.6228,-0.6227,0,-0.5786,-0.5838,-0.5882,-0.5934,-0.5967,-0.6026,-0.604,-0.6073,-0.6072,-0.6086,-0.616,-0.6191,-0.6245,-0.6266,-0.6265,-0.6355,-0.6343,-0.6323,-0.6285,-0.6362,-0.6397,-0.6411,-0.6233,-0.6232,-0.6231,-0.623,0,0,-0.59,-0.5952,-0.5969,-0.5993,-0.6036,-0.6077,-0.6136,-0.6187,-0.6217,-0.6255,-0.6305,-0.6377,-0.636,-0.639,-0.6392,-0.6434,-0.6515,-0.641,-0.6411,-0.643,-0.6618,-0.6634,-0.665,-0.6508,-0.6511,-0.6513,-0.6616,0,-0.5994,-0.6097,-0.6102,-0.6196,-0.6245,-0.6233,-0.6284,-0.6317,-0.6332,-0.6377,-0.6394,-0.6446,-0.6418,-0.6436,-0.6477,-0.6497,-0.6554,-0.6489,-0.6557,-0.656,-0.6549,-0.6668,-0.6684,-0.6779,-0.6629,-0.6631,-0.6633,0,-0.6118,-0.616,-0.6258,-0.6296,-0.6317,-0.6363,-0.6411,-0.6454,-0.6492,-0.65,-0.6534,-0.6531,-0.6593,-0.6551,-0.6638,-0.6594,-0.6622,-0.6636,-0.664,-0.6648,-0.6602,-0.668,-0.6809,-0.6824,-0.6654,-0.6652,-0.665,0,-0.6193,-0.6273,-0.6343,-0.6363,-0.6409,-0.6442,-0.6463,-0.6498,-0.6529,-0.6572,-0.6592,-0.6642,-0.6669,-0.6708,-0.6719,-0.6688,-0.6806,-0.6766,-0.6816,-0.6816,-0.6843,-0.6841,-0.698,-0.6858,-0.6858,-0.6858,-0.6858,0,-0.6299,-0.636,-0.6377,-0.642,-0.6489,-0.6495,-0.6563,-0.6582,-0.6614,-0.6661,-0.6653,-0.6699,-0.671,-0.6757,-0.6766,-0.6838,-0.685,-0.6859,-0.6861,-0.6861,-0.686,-0.688,-0.6875,-0.6862,-0.6861,-0.686,-0.6859,0,-0.6394,-0.6407,-0.6483,-0.652,-0.6531,-0.658,-0.6612,-0.6655,-0.6669,-0.6729,-0.6744,-0.6766,-0.6822,-0.6837,-0.6903,-0.691,-0.6994,-0.6989,-0.6981,-0.6981,-0.7032,-0.7027,-0.719,-0.7212,-0.7075,-0.7076,-0.7077,0,-0.6461,-0.6508,-0.655,-0.6581,-0.6603,-0.6653,-0.6685,-0.6693,-0.6726,-0.6774,-0.6811,-0.6865,-0.691,-0.7,-0.7023,-0.7075,-0.7072,-0.7125,-0.7079,-0.7078,-0.7074,-0.7072,-0.7078,-0.7134,-0.7136,-0.7137,-0.7138,0,-0.6579,-0.6584,-0.6629,-0.6678,-0.6716,-0.6755,-0.6792,-0.6818,-0.6832,-0.687,-0.6927,-0.6961,-0.7029,-0.7085,-0.7137,-0.7159,-0.7152,-0.7152,-0.7166,-0.7167,-0.7161,-0.7167,-0.7006,-0.7148,-0.7147,-0.7146,-0.7146,-0.7145,-0.6663,-0.6705,-0.6742,-0.6793,-0.6822,-0.6857,-0.6899,-0.6918,-0.6966,-0.7021,-0.7023,-0.7086,-0.7124,-0.7193,-0.7219,-0.7268,-0.7252,-0.7273,-0.7279,-0.7284,-0.729,-0.7152,-0.7278,-0.7277,-0.7277,-0.7277,-0.7277,0,-0.6782,-0.6805,-0.6853,-0.6905,-0.6946,-0.6934,-0.6975,-0.7011,-0.7065,-0.7101,-0.7145,-0.7211,-0.7265,-0.7292,-0.7346,-0.7381,-0.7379,-0.7395,-0.7393,-0.7399,-0.73,-0.7282,-0.7396,-0.7396,-0.7396,-0.7395,-0.7395,-0.7395,-0.6849,-0.6919,-0.6929,-0.7014,-0.7037,-0.7098,-0.7122,-0.7155,-0.7184,-0.7258,-0.7303,-0.732,-0.7353,-0.7409,-0.7459,-0.7466,-0.7487,-0.7505,-0.751,-0.7418,-0.7405,-0.7394,-0.7378,-0.7509,-0.7509,-0.7605,-0.7606,-0.7607]}]]